#timestamp,LO_Frequency,Hit,StdDev 
1548720015.8,286046998.5,N
1548720035.6,286047003.1,N
1548720055.5,286047000.5,N
1548720075.3,286047000.5,N
1548720095.1,286046998.9,N
1548720115.9,286047003.7,N
1548720135.7,286047005.4,N
1548720155.5,286047004.1,N
1548720175.4,286047002.3,N
1548720195.2,286046997.2,N
1548720215.1,286046999.6,N
1548720216.0,286046999.6,N
1548720235.8,286047000.7,N
1548720255.6,286046998.5,N
1548720275.5,286047000.7,N
1548720295.3,286047002.2,N
1548720315.2,286047002.4,N
1548720335.9,286047003.1,N
1548720355.7,286047005.4,N
1548720375.6,286047006.4,N
1548720395.4,286047010.4,Y
1548720415.2,286047008.0,P
1548720435.1,286047004.6,N
1548720436.0,286047004.6,N
1548720455.8,286047007.4,Y
1548720475.7,286046998.9,P
1548720495.5,286046997.1,N
1548720515.3,286046994.8,N
1548720535.2,286046993.3,N
1548720555.0,286047004.8,N
1548720555.9,286047004.8,N
1548720575.8,286047016.9,Y
1548720595.6,286047018.3,P
1548720615.4,286047016.3,N
1548720635.3,286047013.3,N
1548720655.1,286047022.3,Y
1548720675.9,286047002.3,P
1548720695.7,286046994.6,N
1548720715.5,286046991.0,N
1548720735.4,286046987.8,N
1548720755.2,286046986.8,N
1548720775.0,286046984.3,N
1548720775.9,286046984.3,N
1548720795.8,286046983.1,N
1548720815.6,286046983.1,N
1548720835.5,286046979.7,N
1548720855.3,286046977.5,N
1548720875.1,286046979.0,N
1548720895.9,286046977.4,N
1548720915.7,286046983.6,N
1548720935.6,286046984.9,N
1548720955.4,286046984.4,N
1548720975.2,286046983.9,N
1548720995.1,286046986.1,N
1548720996.0,286046986.1,N
1548721015.8,286046984.1,N
1548721035.6,286046988.2,N
1548721055.5,286046984.8,N
1548721075.3,286046984.4,N
1548721095.2,286046989.1,N
1548721115.9,286046988.5,N
1548721135.7,286046992.0,N
1548721155.6,286046989.0,N
1548721175.4,286046982.4,N
1548721195.3,286046984.2,N
1548721215.1,286046985.7,N
1548721216.0,286046985.7,N
1548721235.8,286046986.3,Y
1548721255.7,286046996.5,P
1548721275.5,286047000.4,N
1548721295.3,286046999.4,N
1548721315.2,286046992.3,N
1548721335.0,286046993.7,N
1548721335.9,286046993.7,N
1548721355.8,286046990.0,N
1548721375.6,286046992.5,N
1548721395.4,286046988.9,N
1548721415.3,286046989.4,N
1548721435.1,286046983.1,Y
1548721455.9,286046991.9,P
1548721475.7,286046996.5,P
1548721495.5,286046995.1,N
1548721515.4,286046991.1,Y
1548721535.2,286046999.6,P
1548721555.0,286047000.3,N
1548721555.9,286047000.3,N
1548721575.8,286047002.1,N
1548721595.6,286047006.3,N
1548721615.5,286047006.5,N
1548721635.3,286047008.6,N
1548721655.1,286047004.6,N
1548721675.9,286047011.8,N
1548721695.7,286047010.5,N
1548721715.6,286047011.4,N
1548721735.4,286047006.1,N
1548721755.2,286047008.0,N
1548721775.1,286047009.3,N
1548721776.0,286047009.3,N
1548721795.8,286047012.2,N
1548721815.6,286047013.3,N
1548721835.5,286047014.1,N
1548721855.3,286047015.3,N
1548721875.2,286047006.2,N
1548721895.9,286046999.3,N
1548721915.7,286047001.9,N
1548721935.6,286047007.6,N
1548721955.4,286047005.7,N
1548721975.3,286047000.2,N
1548721995.1,286047004.2,N
1548721996.0,286047004.2,N
1548722015.8,286047002.1,N
1548722035.7,286046997.7,N
1548722055.5,286046995.6,N
1548722075.3,286046999.9,N
1548722095.2,286046999.7,N
1548722115.0,286047008.7,N
1548722115.9,286047008.7,N
1548722135.8,286047006.6,N
1548722155.6,286047007.7,N
1548722175.4,286047009.1,N
1548722195.3,286047009.9,N
1548722215.1,286047007.2,N
1548722235.9,286047004.5,N
1548722255.7,286047009.1,N
1548722275.5,286047001.8,N
1548722295.4,286047003.4,N
1548722315.2,286046997.7,N
1548722335.0,286046995.8,N
1548722336.0,286046995.8,N
1548722355.8,286046993.9,N
1548722375.6,286046995.1,N
1548722395.5,286046990.7,N
1548722415.3,286046996.4,N
1548722435.1,286046992.6,N
1548722455.9,286046997.0,N
1548722475.7,286047004.8,N
1548722495.6,286046996.5,N
1548722515.4,286046995.5,N
1548722535.2,286046991.6,N
1548722555.1,286046993.0,N
1548722556.0,286046993.0,N
1548722575.8,286046987.2,N
1548722595.7,286047000.3,N
1548722645.5,286047000.9,E
1548722655.4,286047002.7,N
1548722675.3,286046998.1,P
1548722695.1,286046994.4,N
1548722715.9,286046996.2,N
1548722735.7,286046997.6,N
1548722755.5,286046992.3,N
1548722775.4,286046996.2,N
1548722795.2,286046990.5,Y
1548722815.0,286046991.9,P
1548722815.9,286046991.9,P
1548722835.8,286046997.1,N
1548722855.7,286046995.1,N
1548722875.5,286046998.7,N
1548722895.3,286047000.8,N
1548722915.2,286046995.5,N
1548722935.9,286046994.3,N
1548722955.7,286046993.5,N
1548722975.6,286046990.6,Y
1548722995.4,286047000.0,P
1548723015.3,286047009.1,P
1548723035.1,286047005.8,N
1548723036.0,286047005.8,N
1548723055.8,286047005.7,N
1548723075.7,286047010.8,N
1548723095.5,286047013.1,N
1548723115.3,286047010.1,N
1548723135.2,286047012.4,N
1548723155.0,286047011.2,N
1548723155.9,286047011.2,N
1548723175.8,286047008.0,N
1548723195.6,286047005.1,N
1548723215.4,286046996.5,N
1548723235.3,286047001.9,N
1548723255.1,286047001.0,N
1548723275.9,286047003.4,N
1548723295.7,286046999.3,N
1548723315.5,286046996.9,N
1548723335.4,286046997.3,N
1548723355.2,286046997.4,N
1548723375.0,286047006.5,N
1548723375.9,286047006.5,N
1548723395.8,286047000.6,N
1548723415.6,286047007.3,N
1548723435.5,286047013.6,N
1548723455.3,286047003.6,N
1548723475.1,286047008.7,N
1548723495.9,286047004.2,N
1548723515.7,286047003.3,N
1548723535.5,286047001.2,N
1548723555.4,286047001.3,N
1548723575.2,286046999.7,N
1548723595.1,286047002.4,N
1548723596.0,286047002.4,N
